Location: *
(35.8942°N, 23.3025°E)
Time: 22:01:41
(UTC+00:00)

Molniya-1 - Pass Details

Date: 21 September 2021
Orbit: 534 x 13416 km, 63.2° (Epoch: 22 October)

Event Time Altitude Azimuth Distance (km) Brightness Sun altitude
Exits shadow 02:10:02 60° 235° (SW) 1,084 4.4 -25.4°
Maximum altitude 02:11:03 79° 304° (NW) 1,086 4.6 -25.2°
Drops below altitude 10° 02:23:00 10° 32° (NNE) 5,708 9.1 -22.9°
Sets 02:30:26 0° 35° (NE) 8,478 10.1 -21.5°
